Simultaneous Nadir Overpasses (SNOs) Predictions

Prediction of SNOs between GOES-14 and NOAA-20 Satellite Orbit:

Table of predicted SNOs for the next 14.0 days since TLE Epoch: 12/2/2023
Index Date Time (GOES-14) GOES-14 Lat,Lon NOAA-20 Lat,Lon Distance(km) Time Diff (sec)
1 12/02/2023 20:40:14 0.03,-108.60 -0.06,-109.09 55.39 80
2 12/03/2023 20:24:08 0.02,-108.60 0.90,-104.55 461.25 80
3 12/05/2023 08:43:17 -0.04,-108.63 0.25,-109.82 136.48 80
4 12/06/2023 08:27:12 -0.03,-108.63 -0.77,-105.29 380.23 80
5 12/07/2023 20:46:28 0.05,-108.60 -0.42,-110.59 228.05 80
6 12/08/2023 20:30:24 0.04,-108.60 0.60,-106.07 288.68 80
7 12/10/2023 08:49:32 -0.05,-108.63 0.54,-111.34 309.01 80
8 12/11/2023 08:33:27 -0.04,-108.62 -0.44,-106.80 207.45 80
9 12/12/2023 20:52:43 0.05,-108.59 -0.73,-112.11 401.41 80
10 12/13/2023 20:36:38 0.04,-108.58 0.25,-107.57 114.74 80
11 12/15/2023 08:55:46 -0.06,-108.60 0.88,-112.85 483.80 80
